sat.trackr.live / text

‹ back to catalog

STARLINK-11512 [DTC]

NORAD 62517 · 2025-004G

PAYLOAD ACTIVE UNKNOWN

§ Identity

Operator
Country
US
Launch date
2025-01-08
Launch site
AFETR
Launch vehicle
Mass (kg)
RCS (m²)

Purposes: comms

External: N2YO · Heavens-Above · Gunter

§ Orbital elements

Epoch: 2026-05-24T22:19:09.098688Z

Period
91.67 min
Inclination
43.0025°
Eccentricity
0.0001786
Mean motion
15.70851879 rev/d
Perigee alt
355.3 km
Apogee alt
357.7 km
Semi-major
6,734.6 km
B*
1.0222e-3
RAAN
330.7765°
Arg perigee
293.6848°
Mean anomaly
66.3832°
Rev number
7,920

§ Raw data

STARLINK-11512 [DTC]1 62517U 25004G   26144.92996642  .00132901  00000+0  10222-2 0  99902 62517  43.0025 330.7765 0001786 293.6848  66.3832 15.70851879 79207

JSON: /api/v1/satellites/62517 · /tle

For live sub-satellite position, see the globe view (requires WebGL).

§ Visibility from observer

Set your observer location to see the next 7 days of passes ≥ 10°. The values pass through the URL so the page stays shareable.

No JS? Fill the form by hand. The geolocation button needs JavaScript.